Hoquiam, WA
on Friday, December 14, 2012

Friday
Previous Day Next Day
Daily Summary
 ActualAverageRecord
Temperature
Mean Temperature °F 41°F  
Max Temperature 46°F 46°F 57°F (2002)
Min Temperature 35°F 37°F 24°F (1967)
Degree Days
Heating Degree Days 24 24  
Month to date heating degree days 323  
Cooling Degree Days 0 0  
Month to date cooling degree days 0  
Year to date cooling degree days 23  
Moisture
Dew Point 39°F   
Average Humidity 92    
Maximum Humidity 100    
Minimum Humidity 74    
Precipitation
Precipitation 0.03 in 0.30 in 3.07 in (1959)
Month to date precipitation 4.56  
Year to date precipitation 62.15  
Wind
Wind Speed 7 mph   
Max Wind Speed 20 mph   
Max Gust Speed 24 mph   
Visibility 9 miles   
Events Rain   

Key: T is trace of precipitation, MM is missing value
Source: NWS Daily Summary
Time(PST)TemperatureDew PointHumidity Pressure Visibility Wind DirectionWind SpeedGust SpeedPrecipitationEvents Conditions
12:22 AM 42.8°F 41.0°F 93% 29.77 in 7.0 miles SE 9.2 mph - 0.01 in Rain Light Rain
12:53 AM 43.0°F 42.1°F 97% 29.77 in 4.0 miles SE 11.5 mph - 0.02 in Rain Light Rain
1:14 AM 44.6°F 42.8°F 93% 29.75 in 8.0 miles South 19.6 mph 24.2 mph 0.00 in   Overcast
1:33 AM 44.6°F 42.8°F 93% 29.75 in 10.0 miles South 12.7 mph - 0.00 in   Overcast
1:53 AM 46.0°F 43.0°F 89% 29.76 in 10.0 miles SSE 12.7 mph - 0.00 in   Overcast
2:14 AM 44.6°F 42.8°F 93% 29.75 in 10.0 miles SSE 9.2 mph - N/A   Overcast
2:53 AM 45.0°F 43.0°F 93% 29.77 in 10.0 miles South 6.9 mph - N/A   Overcast
3:17 AM 44.6°F 42.8°F 93% 29.75 in 10.0 miles Calm Calm - N/A   Mostly Cloudy
3:35 AM 44.6°F 42.8°F 93% 29.75 in 10.0 miles Calm Calm - N/A   Mostly Cloudy
3:48 AM 42.8°F 39.2°F 87% 29.76 in 9.0 miles NNW 5.8 mph - N/A   Scattered Clouds
3:53 AM 41.0°F 39.9°F 96% 29.77 in 10.0 miles NNW 5.8 mph - N/A   Partly Cloudy
4:00 AM 41.0°F 41.0°F 100% 29.76 in 10.0 miles NNW 5.8 mph - N/A   Scattered Clouds
4:12 AM 42.8°F 41.0°F 93% 29.77 in 8.0 miles North 6.9 mph - N/A   Mostly Cloudy
4:53 AM 39.9°F 39.9°F 100% 29.79 in 10.0 miles Calm Calm - N/A   Overcast
5:24 AM 39.2°F 39.2°F 100% 29.79 in 10.0 miles WNW 3.5 mph - N/A   Overcast
5:53 AM 39.9°F 39.0°F 97% 29.80 in 10.0 miles Calm Calm - N/A   Scattered Clouds
6:53 AM 39.0°F 37.9°F 96% 29.82 in 10.0 miles WSW 3.5 mph - N/A   Clear
7:53 AM 36.0°F 36.0°F 100% 29.84 in 10.0 miles NE 3.5 mph - N/A   Clear
8:53 AM 37.0°F 36.0°F 96% 29.86 in 6.0 miles NE 4.6 mph - 0.01 in   Clear
9:53 AM 41.0°F 37.9°F 89% 29.89 in 10.0 miles Calm Calm - N/A   Clear
10:53 AM 42.1°F 39.9°F 92% 29.90 in 10.0 miles East 5.8 mph - N/A   Clear
11:40 AM 44.6°F 41.0°F 87% 29.89 in 10.0 miles ENE 4.6 mph - N/A   Mostly Cloudy
11:53 AM 44.1°F 39.9°F 85% 29.91 in 10.0 miles Calm Calm - N/A   Scattered Clouds
12:01 PM 42.8°F 39.2°F 87% 29.90 in 10.0 miles East 3.5 mph - N/A   Mostly Cloudy
12:08 PM 42.8°F 39.2°F 87% 29.89 in 10.0 miles ENE 3.5 mph - N/A   Partly Cloudy
12:53 PM 44.1°F 39.0°F 82% 29.91 in 10.0 miles East 4.6 mph - N/A   Clear
1:53 PM 44.1°F 39.0°F 82% 29.91 in 10.0 miles SE 3.5 mph - N/A   Clear
2:53 PM 45.0°F 37.9°F 76% 29.92 in 10.0 miles SE 4.6 mph - N/A   Mostly Cloudy
3:53 PM 45.0°F 37.0°F 74% 29.93 in 10.0 miles SE 3.5 mph - N/A   Clear
4:53 PM 41.0°F 36.0°F 82% 29.94 in 10.0 miles Calm Calm - N/A   Clear
5:53 PM 37.0°F 36.0°F 96% 29.94 in 10.0 miles Calm Calm - N/A   Clear
6:53 PM 36.0°F 35.1°F 97% 29.94 in 6.0 miles Calm Calm - N/A   Clear
7:53 PM 37.0°F 36.0°F 96% 29.94 in 7.0 miles ENE 5.8 mph - N/A   Clear
8:53 PM 37.0°F 36.0°F 96% 29.95 in 10.0 miles NE 8.1 mph - N/A   Clear
9:53 PM 37.0°F 35.1°F 93% 29.93 in 10.0 miles ENE 6.9 mph - N/A   Mostly Cloudy
10:42 PM 35.6°F 35.6°F 100% 29.91 in 7.0 miles ENE 9.2 mph - N/A   Partly Cloudy
10:53 PM 36.0°F 35.1°F 97% 29.91 in 8.0 miles NE 9.2 mph - N/A   Partly Cloudy
11:53 PM 36.0°F 35.1°F 97% 29.90 in 10.0 miles NE 11.5 mph - N/A   Mostly Cloudy
Moon Phase
Dec. 14 Dec. 20 Dec. 28 Jan. 04 Jan. 11
Sunrise:07:54 AM (PST) Moon Rise:09:00 AM (PST)12/14
Sunset:04:27 PM (PST) Moon Set:06:31 PM (PST)12/14

Copyright © 2014 The Weather Underground, Inc.